Time,TemperatureF,DewpointF,PressureIn,WindDirection,WindDirectionDegrees,WindSpeedMPH,WindSpeedGustMPH,Humidity,HourlyPrecipIn,Conditions,Clouds,dailyrainin,SoftwareType,DateUTC
2013-06-25 00:02:00,78.7,70.1,29.83,SW,214,1.6,2.3,75,0.02,RA,,0.00,WeatherDisplay:10.37,2013-06-25 05:02:00,
2013-06-25 00:07:00,78.6,70.0,29.82,South,180,2.2,3.5,75,0.02,RA,,0.00,WeatherDisplay:10.37,2013-06-25 05:07:00,
2013-06-25 00:12:00,78.4,70.2,29.81,SSE,150,1.5,4.6,76,0.02,FEW,,0.00,WeatherDisplay:10.37,2013-06-25 05:12:00,
2013-06-25 00:17:00,78.3,70.1,29.81,SSE,158,2.2,5.8,76,0.01,FEW,,0.01,WeatherDisplay:10.37,2013-06-25 05:17:00,
2013-06-25 00:22:00,78.5,70.3,29.81,ESE,115,2.9,3.5,76,0.02,RA,,0.01,WeatherDisplay:10.37,2013-06-25 05:22:00,
2013-06-25 00:27:00,78.7,70.1,29.80,SE,139,1.1,3.5,75,0.01,RA,,0.01,WeatherDisplay:10.37,2013-06-25 05:27:00,
2013-06-25 00:32:00,78.4,70.6,29.79,NE,55,1.2,3.5,77,0.01,FEW,,0.01,WeatherDisplay:10.37,2013-06-25 05:32:00,
2013-06-25 00:37:00,77.7,70.7,29.81,West,261,2.2,4.6,79,0.02,RA,,0.02,WeatherDisplay:10.37,2013-06-25 05:37:00,
2013-06-25 00:42:00,77.3,70.6,29.81,NW,326,2.1,3.5,80,0.02,RA,,0.02,WeatherDisplay:10.37,2013-06-25 05:42:00,
2013-06-25 00:47:00,77.2,70.2,29.81,SW,223,2.7,4.0,79,0.02,FEW,,0.02,WeatherDisplay:10.37,2013-06-25 05:47:00,
2013-06-25 00:52:00,77.5,70.1,29.81,SSE,160,1.5,3.5,78,0.02,FEW,,0.02,WeatherDisplay:10.37,2013-06-25 05:52:00,
2013-06-25 00:57:00,77.8,70.0,29.80,SSE,154,3.2,3.5,77,0.02,FEW,,0.02,WeatherDisplay:10.37,2013-06-25 05:57:00,
2013-06-25 01:02:00,78.2,70.0,29.80,NNE,24,2.1,3.5,76,0.02,-RA,,0.02,WeatherDisplay:10.37,2013-06-25 06:02:00,
2013-06-25 01:07:00,78.5,70.3,29.80,SSW,198,2.3,5.8,76,0.02,-RA,,0.02,WeatherDisplay:10.37,2013-06-25 06:07:00,
2013-06-25 01:12:00,78.6,70.0,29.80,SE,129,2.1,4.6,75,0.02,-RA,,0.02,WeatherDisplay:10.37,2013-06-25 06:12:00,
2013-06-25 01:17:00,78.6,70.0,29.79,SSE,164,1.0,2.3,75,0.02,-RA,,0.02,WeatherDisplay:10.37,2013-06-25 06:17:00,
2013-06-25 01:22:00,78.6,70.0,29.78,West,276,1.0,3.5,75,0.01,-RA,,0.02,WeatherDisplay:10.37,2013-06-25 06:22:00,
2013-06-25 01:27:00,78.6,70.0,29.78,SSW,202,1.0,3.5,75,0.01,-RA,,0.02,WeatherDisplay:10.37,2013-06-25 06:27:00,
2013-06-25 01:32:00,78.8,69.8,29.77,SSE,160,1.5,3.5,74,0.01,-RA,,0.02,WeatherDisplay:10.37,2013-06-25 06:32:00,
2013-06-25 01:37:00,79.0,70.0,29.80,WSW,240,2.9,4.6,74,0.00,-RA,,0.02,WeatherDisplay:10.37,2013-06-25 06:37:00,
2013-06-25 01:42:00,79.1,69.7,29.78,ESE,111,1.3,3.5,73,0.00,-RA,,0.02,WeatherDisplay:10.37,2013-06-25 06:42:00,
2013-06-25 01:47:00,79.2,69.8,29.78,SW,231,1.7,3.5,73,0.00,-RA,,0.02,WeatherDisplay:10.37,2013-06-25 06:47:00,
2013-06-25 01:52:00,79.5,70.1,29.77,SE,138,1.2,3.5,73,0.00,-RA,,0.02,WeatherDisplay:10.37,2013-06-25 06:52:00,
2013-06-25 01:57:00,79.6,69.8,29.76,SSE,155,1.5,3.5,72,0.00,-RA,,0.02,WeatherDisplay:10.37,2013-06-25 06:57:00,
2013-06-25 02:02:00,79.7,69.5,29.76,WSW,240,1.2,3.5,71,0.00,-RA,,0.02,WeatherDisplay:10.37,2013-06-25 07:02:00,
2013-06-25 02:07:00,79.9,69.7,29.76,East,86,1.1,2.3,71,0.00,-RA,,0.02,WeatherDisplay:10.37,2013-06-25 07:07:00,
2013-06-25 02:12:00,80.1,69.4,29.75,South,174,1.7,3.5,70,0.00,FEW,,0.02,WeatherDisplay:10.37,2013-06-25 07:12:00,
2013-06-25 02:17:00,80.3,69.2,29.76,West,263,1.9,3.5,69,0.00,FEW,,0.02,WeatherDisplay:10.37,2013-06-25 07:17:00,
2013-06-25 02:22:00,80.5,69.4,29.75,East,89,1.9,4.6,69,0.00,FEW,,0.02,WeatherDisplay:10.37,2013-06-25 07:22:00,
2013-06-25 02:27:00,80.5,69.4,29.75,WNW,292,1.9,3.5,69,0.00,FEW,,0.02,WeatherDisplay:10.37,2013-06-25 07:27:00,
2013-06-25 02:32:00,80.3,69.2,29.75,SSW,211,0.5,2.3,69,0.00,FEW,,0.02,WeatherDisplay:10.37,2013-06-25 07:32:00,
2013-06-25 02:37:00,80.1,69.0,29.75,WSW,240,1.5,3.5,69,0.00,FEW,,0.02,WeatherDisplay:10.37,2013-06-25 07:37:00,
2013-06-25 02:42:00,80.0,68.9,29.75,SSW,208,1.1,2.3,69,0.00,FEW,,0.02,WeatherDisplay:10.37,2013-06-25 07:42:00,
2013-06-25 02:47:00,79.9,68.8,29.75,SE,138,0.6,1.2,69,0.00,FEW,,0.02,WeatherDisplay:10.37,2013-06-25 07:47:00,
2013-06-25 02:52:00,79.6,68.5,29.75,SSE,149,0.4,2.3,69,0.00,FEW,,0.02,WeatherDisplay:10.37,2013-06-25 07:52:00,
2013-06-25 02:57:00,79.3,68.2,29.75,WSW,256,0.1,1.2,69,0.00,FEW,,0.02,WeatherDisplay:10.37,2013-06-25 07:57:00,
2013-06-25 03:02:00,79.3,68.7,29.75,SSE,168,0.5,2.3,70,0.00,FEW,,0.02,WeatherDisplay:10.37,2013-06-25 08:02:00,
2013-06-25 03:07:00,79.2,68.6,29.76,SSW,209,1.6,3.5,70,0.00,FEW,,0.02,WeatherDisplay:10.37,2013-06-25 08:07:00,
2013-06-25 03:12:00,79.3,69.1,29.79,WSW,252,2.1,4.6,71,0.00,CLR,,0.02,WeatherDisplay:10.37,2013-06-25 08:12:00,
2013-06-25 03:17:00,79.2,69.4,29.78,SW,222,2.7,4.6,72,0.00,CLR,,0.02,WeatherDisplay:10.37,2013-06-25 08:17:00,
2013-06-25 03:22:00,79.1,69.3,29.78,West,271,0.4,2.0,72,0.00,CLR,,0.02,WeatherDisplay:10.37,2013-06-25 08:22:00,
2013-06-25 03:27:00,78.8,69.4,29.78,SE,138,1.2,2.3,73,0.00,CLR,,0.02,WeatherDisplay:10.37,2013-06-25 08:27:00,
2013-06-25 03:32:00,78.6,69.2,29.78,WNW,295,2.2,4.6,73,0.00,CLR,,0.02,WeatherDisplay:10.37,2013-06-25 08:32:00,
2013-06-25 03:37:00,78.6,69.2,29.78,ESE,123,1.0,2.3,73,0.00,CLR,,0.02,WeatherDisplay:10.37,2013-06-25 08:37:00,
2013-06-25 03:42:00,78.5,69.1,29.77,WNW,297,1.8,3.5,73,0.00,CLR,,0.02,WeatherDisplay:10.37,2013-06-25 08:42:00,
2013-06-25 03:47:00,78.5,69.1,29.77,NNE,13,0.8,2.3,73,0.00,CLR,,0.02,WeatherDisplay:10.37,2013-06-25 08:47:00,
2013-06-25 03:52:00,78.5,69.1,29.76,South,187,1.9,3.5,73,0.00,CLR,,0.02,WeatherDisplay:10.37,2013-06-25 08:52:00,
2013-06-25 03:57:00,78.6,68.8,29.75,SSE,148,2.8,3.5,72,0.00,CLR,,0.02,WeatherDisplay:10.37,2013-06-25 08:57:00,
2013-06-25 04:02:00,78.8,69.0,29.76,WSW,258,1.7,4.6,72,0.00,CLR,,0.02,WeatherDisplay:10.37,2013-06-25 09:02:00,
2013-06-25 04:07:00,78.9,69.1,29.77,SE,143,1.1,3.5,72,0.00,CLR,,0.02,WeatherDisplay:10.37,2013-06-25 09:07:00,
2013-06-25 04:12:00,78.9,69.1,29.77,SSE,150,2.5,3.5,72,0.00,CLR,,0.02,WeatherDisplay:10.37,2013-06-25 09:12:00,
2013-06-25 04:17:00,79.1,69.3,29.78,SSE,168,1.3,3.5,72,0.00,CLR,,0.02,WeatherDisplay:10.37,2013-06-25 09:17:00,
2013-06-25 04:22:00,79.3,69.1,29.79,SW,233,1.7,4.0,71,0.00,CLR,,0.02,WeatherDisplay:10.37,2013-06-25 09:22:00,
2013-06-25 04:27:00,79.5,69.3,29.81,West,259,0.8,3.5,71,0.00,CLR,,0.02,WeatherDisplay:10.37,2013-06-25 09:27:00,
2013-06-25 04:32:00,79.4,69.2,29.81,WSW,251,1.5,3.5,71,0.00,CLR,,0.02,WeatherDisplay:10.37,2013-06-25 09:32:00,
2013-06-25 04:37:00,79.2,69.4,29.80,SSW,193,0.4,2.3,72,0.00,CLR,,0.02,WeatherDisplay:10.37,2013-06-25 09:37:00,
2013-06-25 04:42:00,79.0,69.6,29.80,SE,146,0.6,3.0,73,0.00,CLR,,0.02,WeatherDisplay:10.37,2013-06-25 09:42:00,
2013-06-25 04:47:00,78.8,69.4,29.79,SE,135,0.5,1.2,73,0.00,CLR,,0.02,WeatherDisplay:10.37,2013-06-25 09:47:00,
2013-06-25 04:52:00,78.6,69.6,29.79,North,8,0.6,2.3,74,0.00,CLR,,0.02,WeatherDisplay:10.37,2013-06-25 09:52:00,
2013-06-25 04:57:00,78.4,69.4,29.80,West,274,0.2,1.2,74,0.00,CLR,,0.02,WeatherDisplay:10.37,2013-06-25 09:57:00,
2013-06-25 05:02:00,78.3,69.3,29.80,West,262,1.4,4.6,74,0.00,CLR,,0.02,WeatherDisplay:10.37,2013-06-25 10:02:00,
2013-06-25 05:07:00,78.5,69.5,29.81,WNW,289,0.1,2.3,74,0.00,CLR,,0.02,WeatherDisplay:10.37,2013-06-25 10:07:00,
2013-06-25 05:12:00,78.5,69.5,29.81,West,261,0.2,1.2,74,0.00,CLR,,0.02,WeatherDisplay:10.37,2013-06-25 10:12:00,
2013-06-25 05:17:00,78.4,69.8,29.81,SSW,211,0.8,2.3,75,0.00,CLR,,0.02,WeatherDisplay:10.37,2013-06-25 10:17:00,
2013-06-25 05:22:00,78.3,69.7,29.82,WSW,238,0.2,3.5,75,0.00,CLR,,0.02,WeatherDisplay:10.37,2013-06-25 10:22:00,
2013-06-25 05:27:00,78.1,69.5,29.82,West,259,0.8,3.0,75,0.00,CLR,,0.02,WeatherDisplay:10.37,2013-06-25 10:27:00,
2013-06-25 05:32:00,78.1,69.5,29.82,West,261,0.5,3.5,75,0.00,CLR,,0.02,WeatherDisplay:10.37,2013-06-25 10:32:00,
2013-06-25 05:37:00,78.1,69.5,29.83,WNW,289,0.3,1.2,75,0.00,CLR,,0.02,WeatherDisplay:10.37,2013-06-25 10:37:00,
2013-06-25 05:42:00,78.1,69.5,29.83,West,272,1.1,3.5,75,0.00,CLR,,0.02,WeatherDisplay:10.37,2013-06-25 10:42:00,
2013-06-25 05:47:00,78.1,69.9,29.83,SW,232,0.3,1.2,76,0.00,CLR,,0.02,WeatherDisplay:10.37,2013-06-25 10:47:00,
2013-06-25 05:52:00,77.9,69.7,29.83,West,278,0.2,1.2,76,0.00,CLR,,0.02,WeatherDisplay:10.37,2013-06-25 10:52:00,
2013-06-25 05:57:00,77.7,69.9,29.83,WSW,242,0.0,1.2,77,0.00,CLR,,0.02,WeatherDisplay:10.37,2013-06-25 10:57:00,
2013-06-25 06:02:00,77.4,69.6,29.84,WSW,244,0.4,1.0,77,0.00,CLR,,0.02,WeatherDisplay:10.37,2013-06-25 11:02:00,
2013-06-25 06:07:00,77.2,69.8,29.83,SW,222,0.3,1.2,78,0.00,CLR,,0.02,WeatherDisplay:10.37,2013-06-25 11:07:00,
2013-06-25 06:12:00,77.0,70.0,29.83,SW,235,0.4,1.2,79,0.00,CLR,,0.02,WeatherDisplay:10.37,2013-06-25 11:12:00,
2013-06-25 06:17:00,76.8,69.8,29.83,WNW,283,0.4,1.2,79,0.00,CLR,,0.02,WeatherDisplay:10.37,2013-06-25 11:17:00,
2013-06-25 06:22:00,76.8,70.2,29.83,West,276,0.0,1.2,80,0.00,CLR,,0.02,WeatherDisplay:10.37,2013-06-25 11:22:00,
2013-06-25 06:27:00,76.6,70.3,29.83,SW,236,0.1,1.2,81,0.00,CLR,,0.02,WeatherDisplay:10.37,2013-06-25 11:27:00,
2013-06-25 06:32:00,76.2,70.3,29.83,SW,236,0.0,0.0,82,0.00,CLR,,0.02,WeatherDisplay:10.37,2013-06-25 11:32:00,
2013-06-25 06:37:00,75.7,70.5,29.83,SW,236,0.0,0.0,84,0.01,RA,,0.03,WeatherDisplay:10.37,2013-06-25 11:37:00,
2013-06-25 06:42:00,75.1,70.6,29.82,SW,236,0.0,0.0,86,0.02,RA,,0.03,WeatherDisplay:10.37,2013-06-25 11:42:00,
2013-06-25 06:47:00,74.6,70.8,29.82,WSW,237,0.0,0.0,88,0.02,RA,,0.03,WeatherDisplay:10.37,2013-06-25 11:47:00,
2013-06-25 06:52:00,74.0,70.9,29.81,SW,233,0.1,0.0,90,0.02,RA,,0.04,WeatherDisplay:10.37,2013-06-25 11:52:00,
2013-06-25 06:57:00,73.6,70.8,29.80,SW,232,0.0,0.0,91,0.02,RA,,0.04,WeatherDisplay:10.37,2013-06-25 11:57:00,
2013-06-25 07:02:00,73.3,70.8,29.78,SSW,207,0.0,0.0,92,0.03,-RA,,0.05,WeatherDisplay:10.37,2013-06-25 12:02:00,
2013-06-25 07:07:00,73.1,70.6,29.79,WNW,283,0.4,1.2,92,0.03,-RA,,0.05,WeatherDisplay:10.37,2013-06-25 12:07:00,
2013-06-25 07:12:00,73.0,70.9,29.81,WNW,297,0.2,1.2,93,0.04,-RA,,0.06,WeatherDisplay:10.37,2013-06-25 12:12:00,
2013-06-25 07:17:00,72.9,70.4,29.81,NW,308,0.0,0.0,92,0.04,-RA,,0.06,WeatherDisplay:10.37,2013-06-25 12:17:00,
2013-06-25 07:22:00,72.8,70.3,29.81,NW,309,0.0,0.0,92,0.04,-RA,,0.06,WeatherDisplay:10.37,2013-06-25 12:22:00,
2013-06-25 07:27:00,72.8,70.3,29.81,NW,308,0.0,0.0,92,0.04,-RA,,0.06,WeatherDisplay:10.37,2013-06-25 12:27:00,
2013-06-25 07:32:00,72.7,70.6,29.81,SSE,165,0.0,1.2,93,0.04,-RA,,0.06,WeatherDisplay:10.37,2013-06-25 12:32:00,
2013-06-25 07:37:00,72.7,70.6,29.82,South,182,0.0,0.0,93,0.03,-RA,,0.06,WeatherDisplay:10.37,2013-06-25 12:37:00,
2013-06-25 07:42:00,72.6,70.5,29.81,South,182,0.0,0.0,93,0.02,-RA,,0.06,WeatherDisplay:10.37,2013-06-25 12:42:00,
2013-06-25 07:48:00,72.6,70.8,29.80,South,182,0.0,0.0,94,0.03,-RA,,0.06,WeatherDisplay:10.37,2013-06-25 12:48:00,
2013-06-25 07:53:00,72.5,70.7,29.78,South,181,0.0,0.0,94,0.02,-RA,,0.06,WeatherDisplay:10.37,2013-06-25 12:53:00,
2013-06-25 07:58:00,72.4,70.9,29.78,SSE,158,0.0,0.0,95,0.03,-RA,,0.07,WeatherDisplay:10.37,2013-06-25 12:58:00,
2013-06-25 08:03:00,72.3,70.5,29.78,SSE,159,0.0,0.0,94,0.02,-RA,,0.07,WeatherDisplay:10.37,2013-06-25 13:03:00,
2013-06-25 08:08:00,72.2,70.4,29.79,SSE,165,0.0,1.2,94,0.02,-RA,,0.07,WeatherDisplay:10.37,2013-06-25 13:08:00,
2013-06-25 08:13:00,72.3,70.8,29.80,WSW,252,0.0,1.2,95,0.02,-RA,,0.07,WeatherDisplay:10.37,2013-06-25 13:13:00,
2013-06-25 08:18:00,72.4,70.9,29.80,WSW,252,0.0,0.0,95,0.02,-RA,,0.07,WeatherDisplay:10.37,2013-06-25 13:18:00,
2013-06-25 08:23:00,72.4,70.9,29.79,WSW,251,0.0,0.0,95,0.02,-RA,,0.07,WeatherDisplay:10.37,2013-06-25 13:23:00,
2013-06-25 08:28:00,72.3,70.8,29.81,WSW,252,0.0,0.0,95,0.02,-RA,,0.07,WeatherDisplay:10.37,2013-06-25 13:28:00,
2013-06-25 08:33:00,72.3,70.8,29.82,WSW,252,0.0,0.0,95,0.02,-RA,,0.07,WeatherDisplay:10.37,2013-06-25 13:33:00,
2013-06-25 08:38:00,72.3,70.8,29.82,WSW,252,0.0,0.0,95,0.02,-RA,,0.07,WeatherDisplay:10.37,2013-06-25 13:38:00,
2013-06-25 08:43:00,72.4,70.9,29.83,WSW,252,0.0,0.0,95,0.02,-RA,,0.07,WeatherDisplay:10.37,2013-06-25 13:43:00,
2013-06-25 08:48:00,72.4,70.9,29.83,SSW,199,0.0,0.0,95,0.01,-RA,,0.07,WeatherDisplay:10.37,2013-06-25 13:48:00,
2013-06-25 08:53:00,72.4,70.9,29.83,SSW,199,0.0,0.0,95,0.01,SCT,,0.07,WeatherDisplay:10.37,2013-06-25 13:53:00,
2013-06-25 08:58:00,72.4,70.9,29.84,SSW,200,0.0,0.0,95,0.00,SCT,,0.07,WeatherDisplay:10.37,2013-06-25 13:58:00,
2013-06-25 09:03:00,72.4,71.2,29.85,SW,214,0.0,0.0,96,0.00,BKN,,0.07,WeatherDisplay:10.37,2013-06-25 14:03:00,
2013-06-25 09:08:00,72.4,70.9,29.85,SSW,213,0.0,1.2,95,0.01,RA,,0.08,WeatherDisplay:10.37,2013-06-25 14:08:00,
2013-06-25 09:13:00,72.5,71.3,29.83,SSW,213,0.1,1.2,96,0.01,RA,,0.08,WeatherDisplay:10.37,2013-06-25 14:13:00,
2013-06-25 09:18:00,72.6,71.4,29.83,SSW,208,0.0,0.0,96,0.01,RA,,0.09,WeatherDisplay:10.37,2013-06-25 14:18:00,
2013-06-25 09:23:00,72.5,71.3,29.84,SW,226,0.1,1.2,96,0.02,RA,,0.09,WeatherDisplay:10.37,2013-06-25 14:23:00,
2013-06-25 10:10:00,83.3,72.1,29.65,SSE,155,1.0,1.0,69,0.00,CLR,,0.14,WeatherDisplay:10.37,2013-06-25 15:10:00,
2013-06-25 10:31:00,73.9,72.1,29.79,ESE,105,0.5,2.0,94,0.04,RA,,0.11,WeatherDisplay:10.37,2013-06-25 15:31:00,
2013-06-25 10:36:00,74.2,72.0,29.79,SW,229,0.2,1.2,93,0.04,BKN,,0.11,WeatherDisplay:10.37,2013-06-25 15:36:00,
2013-06-25 10:41:00,74.5,72.7,29.80,North,1,0.1,1.0,94,0.04,BKN,,0.11,WeatherDisplay:10.37,2013-06-25 15:41:00,
2013-06-25 10:46:00,74.6,72.4,29.79,South,191,0.0,0.0,93,0.05,RA,,0.12,WeatherDisplay:10.37,2013-06-25 15:46:00,
2013-06-25 10:54:00,74.4,71.9,29.78,ESE,121,2.0,3.0,92,0.05,CLR,,0.12,WeatherDisplay:10.37,2013-06-25 15:54:00,
2013-06-25 10:59:00,74.2,71.7,29.78,SE,143,1.0,2.0,92,0.04,BKN,,0.12,WeatherDisplay:10.37,2013-06-25 15:59:00,
2013-06-25 11:04:00,74.1,71.6,29.77,South,179,1.0,2.3,92,0.06,RA,,0.13,WeatherDisplay:10.37,2013-06-25 16:04:00,
2013-06-25 11:09:00,74.0,71.8,29.78,SE,136,0.6,1.2,93,0.05,RA,,0.13,WeatherDisplay:10.37,2013-06-25 16:09:00,
2013-06-25 11:14:00,74.0,71.8,29.78,ESE,120,0.3,1.2,93,0.04,RA,,0.14,WeatherDisplay:10.37,2013-06-25 16:14:00,
2013-06-25 11:19:00,74.1,71.9,29.78,SSE,153,0.5,2.3,93,0.04,RA,,0.14,WeatherDisplay:10.37,2013-06-25 16:19:00,
2013-06-25 11:24:00,74.2,72.0,29.77,SE,145,0.0,1.2,93,0.03,BKN,,0.14,WeatherDisplay:10.37,2013-06-25 16:24:00,
2013-06-25 11:29:00,74.3,71.8,29.77,South,184,0.9,1.2,92,0.03,BKN,,0.14,WeatherDisplay:10.37,2013-06-25 16:29:00,
2013-06-25 11:34:00,74.5,72.0,29.76,SSE,150,0.3,2.3,92,0.03,BKN,,0.14,WeatherDisplay:10.37,2013-06-25 16:34:00,
2013-06-25 11:39:00,74.6,72.1,29.76,SE,143,0.7,3.5,92,0.03,BKN,,0.14,WeatherDisplay:10.37,2013-06-25 16:39:00,
2013-06-25 11:44:00,74.9,72.1,29.76,SSE,160,1.1,3.5,91,0.02,BKN,,0.14,WeatherDisplay:10.37,2013-06-25 16:44:00,
2013-06-25 11:49:00,75.2,72.1,29.76,ESE,106,1.5,2.3,90,0.02,BKN,,0.14,WeatherDisplay:10.37,2013-06-25 16:49:00,
2013-06-25 11:54:00,75.5,72.4,29.77,SSE,168,0.2,1.2,90,0.02,-RA,,0.14,WeatherDisplay:10.37,2013-06-25 16:54:00,
2013-06-25 11:59:00,75.7,72.6,29.77,WSW,258,1.2,3.5,90,0.02,-RA,,0.14,WeatherDisplay:10.37,2013-06-25 16:59:00,
2013-06-25 12:04:00,76.1,72.3,29.76,SE,127,0.4,5.8,88,0.01,-RA,,0.14,WeatherDisplay:10.37,2013-06-25 17:04:00,
2013-06-25 12:09:00,76.5,72.3,29.76,SE,144,1.4,2.3,87,0.01,-RA,,0.14,WeatherDisplay:10.37,2013-06-25 17:09:00,
2013-06-25 12:15:00,76.9,73.1,29.76,East,88,0.7,2.3,88,0.00,-RA,,0.14,WeatherDisplay:10.37,2013-06-25 17:15:00,
2013-06-25 12:20:00,77.4,73.2,29.75,ENE,77,1.4,3.5,87,0.00,-RA,,0.14,WeatherDisplay:10.37,2013-06-25 17:20:00,
2013-06-25 12:25:00,77.8,73.3,29.75,SSE,167,1.5,2.0,86,0.00,-RA,,0.14,WeatherDisplay:10.37,2013-06-25 17:25:00,
2013-06-25 12:30:00,78.5,74.0,29.75,ESE,121,1.5,3.5,86,0.00,-RA,,0.14,WeatherDisplay:10.37,2013-06-25 17:30:00,
2013-06-25 12:35:00,79.6,74.3,29.75,SE,132,2.9,3.5,84,0.00,-RA,,0.14,WeatherDisplay:10.37,2013-06-25 17:35:00,
2013-06-25 12:40:00,80.3,73.6,29.75,ENE,69,3.1,4.6,80,0.00,-RA,,0.14,WeatherDisplay:10.37,2013-06-25 17:40:00,
2013-06-25 12:45:00,80.6,73.9,29.74,SW,233,3.0,4.0,80,0.00,-RA,,0.14,WeatherDisplay:10.37,2013-06-25 17:45:00,
2013-06-25 12:50:00,81.0,74.2,29.74,West,259,2.5,8.1,80,0.00,-RA,,0.14,WeatherDisplay:10.37,2013-06-25 17:50:00,
2013-06-25 12:55:00,81.5,74.7,29.74,East,100,0.7,3.5,80,0.00,-RA,,0.14,WeatherDisplay:10.37,2013-06-25 17:55:00,
2013-06-25 13:00:00,82.1,74.2,29.74,ESE,122,1.7,3.5,77,0.00,-RA,,0.14,WeatherDisplay:10.37,2013-06-25 18:00:00,
2013-06-25 13:05:00,82.8,74.1,29.74,SSW,203,2.9,4.6,75,0.00,BKN,,0.14,WeatherDisplay:10.37,2013-06-25 18:05:00,
2013-06-25 13:10:00,83.6,74.4,29.74,SSW,198,2.6,3.5,74,0.00,BKN,,0.14,WeatherDisplay:10.37,2013-06-25 18:10:00,
2013-06-25 13:15:00,84.1,74.5,29.73,SE,125,2.9,4.0,73,0.00,BKN,,0.14,WeatherDisplay:10.37,2013-06-25 18:15:00,
2013-06-25 13:20:00,84.7,74.7,29.73,ESE,106,2.4,3.5,72,0.00,BKN,,0.14,WeatherDisplay:10.37,2013-06-25 18:20:00,
2013-06-25 13:25:00,85.1,74.6,29.73,ESE,113,3.2,9.2,71,0.00,BKN,,0.14,WeatherDisplay:10.37,2013-06-25 18:25:00,
2013-06-25 13:30:00,85.7,75.2,29.73,ESE,110,1.4,3.0,71,0.00,BKN,,0.14,WeatherDisplay:10.37,2013-06-25 18:30:00,
2013-06-25 13:35:00,86.4,75.0,29.73,East,90,1.9,4.6,69,0.00,BKN,,0.14,WeatherDisplay:10.37,2013-06-25 18:35:00,
2013-06-25 13:40:00,86.8,74.1,29.73,SSE,153,2.0,5.8,66,0.00,BKN,,0.14,WeatherDisplay:10.37,2013-06-25 18:40:00,
2013-06-25 13:45:00,86.6,73.0,29.73,South,178,2.5,8.1,64,0.00,BKN,,0.14,WeatherDisplay:10.37,2013-06-25 18:45:00,
2013-06-25 13:50:00,87.1,73.4,29.72,ESE,122,3.7,4.6,64,0.00,BKN,,0.14,WeatherDisplay:10.37,2013-06-25 18:50:00,
2013-06-25 13:55:00,87.0,72.4,29.72,ESE,110,2.2,10.4,62,0.00,BKN,,0.14,WeatherDisplay:10.37,2013-06-25 18:55:00,
2013-06-25 14:00:00,87.1,73.4,29.72,WSW,238,1.4,3.5,64,0.00,BKN,,0.14,WeatherDisplay:10.37,2013-06-25 19:00:00,
2013-06-25 14:05:00,87.5,73.3,29.72,SE,145,2.5,4.6,63,0.00,CLR,,0.14,WeatherDisplay:10.37,2013-06-25 19:05:00,
2013-06-25 14:10:00,87.5,72.9,29.72,ESE,119,3.5,8.1,62,0.00,CLR,,0.14,WeatherDisplay:10.37,2013-06-25 19:10:00,
2013-06-25 14:15:00,87.6,73.0,29.72,SW,219,4.3,5.8,62,0.00,CLR,,0.14,WeatherDisplay:10.37,2013-06-25 19:15:00,
2013-06-25 14:20:00,87.7,72.6,29.71,ESE,117,2.9,6.9,61,0.00,CLR,,0.14,WeatherDisplay:10.37,2013-06-25 19:20:00,
2013-06-25 14:25:00,87.8,73.6,29.71,South,170,2.7,4.0,63,0.00,CLR,,0.14,WeatherDisplay:10.37,2013-06-25 19:25:00,
2013-06-25 14:30:00,88.1,73.0,29.70,ESE,107,2.2,10.4,61,0.00,CLR,,0.14,WeatherDisplay:10.37,2013-06-25 19:30:00,
2013-06-25 14:35:00,88.3,72.7,29.70,SE,124,2.8,6.9,60,0.00,CLR,,0.14,WeatherDisplay:10.37,2013-06-25 19:35:00,
2013-06-25 14:40:00,88.3,72.2,29.70,SSW,200,3.9,5.0,59,0.00,CLR,,0.14,WeatherDisplay:10.37,2013-06-25 19:40:00,
2013-06-25 14:45:00,88.3,72.7,29.70,ESE,115,2.0,5.8,60,0.00,CLR,,0.14,WeatherDisplay:10.37,2013-06-25 19:45:00,
2013-06-25 14:50:00,88.4,72.7,29.70,West,268,2.9,3.5,60,0.00,CLR,,0.14,WeatherDisplay:10.37,2013-06-25 19:50:00,
2013-06-25 14:55:00,88.3,72.7,29.70,SW,219,3.3,5.0,60,0.00,CLR,,0.14,WeatherDisplay:10.37,2013-06-25 19:55:00,
2013-06-25 15:00:00,88.0,73.3,29.70,ESE,111,1.3,3.5,62,0.00,CLR,,0.14,WeatherDisplay:10.37,2013-06-25 20:00:00,
2013-06-25 15:05:00,87.7,72.6,29.70,ESE,121,2.4,4.6,61,0.00,FEW,,0.14,WeatherDisplay:10.37,2013-06-25 20:05:00,
2013-06-25 15:10:00,87.9,72.3,29.70,SSE,167,3.8,6.9,60,0.00,FEW,,0.14,WeatherDisplay:10.37,2013-06-25 20:10:00,
2013-06-25 15:15:00,88.4,73.2,29.69,ESE,115,2.1,3.5,61,0.00,FEW,,0.14,WeatherDisplay:10.37,2013-06-25 20:15:00,
2013-06-25 15:20:00,88.4,73.2,29.69,SW,232,2.6,3.5,61,0.00,FEW,,0.14,WeatherDisplay:10.37,2013-06-25 20:20:00,
2013-06-25 15:25:00,88.6,72.9,29.69,SSE,167,4.6,10.4,60,0.00,FEW,,0.14,WeatherDisplay:10.37,2013-06-25 20:25:00,
2013-06-25 15:30:00,88.6,73.4,29.69,WNW,293,1.2,4.6,61,0.00,FEW,,0.14,WeatherDisplay:10.37,2013-06-25 20:30:00,
2013-06-25 15:35:00,88.8,72.6,29.68,ESE,107,3.1,4.6,59,0.00,FEW,,0.14,WeatherDisplay:10.37,2013-06-25 20:35:00,
2013-06-25 15:40:00,88.8,72.6,29.68,SSE,147,4.0,5.8,59,0.00,FEW,,0.14,WeatherDisplay:10.37,2013-06-25 20:40:00,
2013-06-25 15:45:00,88.8,73.1,29.67,SW,233,3.0,8.1,60,0.00,FEW,,0.14,WeatherDisplay:10.37,2013-06-25 20:45:00,
2013-06-25 15:50:00,89.2,73.0,29.67,ESE,115,3.2,6.9,59,0.00,FEW,,0.14,WeatherDisplay:10.37,2013-06-25 20:50:00,
2013-06-25 15:55:00,89.3,72.6,29.67,East,97,1.9,5.8,58,0.00,FEW,,0.14,WeatherDisplay:10.37,2013-06-25 20:55:00,
2013-06-25 16:00:00,89.5,72.8,29.67,SW,228,2.6,8.1,58,0.00,FEW,,0.14,WeatherDisplay:10.37,2013-06-25 21:00:00,
2013-06-25 16:05:00,89.1,71.9,29.67,SSW,211,3.1,6.9,57,0.00,FEW,,0.14,WeatherDisplay:10.37,2013-06-25 21:05:00,
2013-06-25 16:10:00,88.6,72.4,29.67,South,172,2.4,4.0,59,0.00,FEW,,0.14,WeatherDisplay:10.37,2013-06-25 21:10:00,
2013-06-25 16:15:00,89.1,73.4,29.67,West,276,1.9,3.5,60,0.00,FEW,,0.14,WeatherDisplay:10.37,2013-06-25 21:15:00,
2013-06-25 16:20:00,89.3,73.1,29.68,SSW,203,3.2,10.4,59,0.00,FEW,,0.14,WeatherDisplay:10.37,2013-06-25 21:20:00,
2013-06-25 16:25:00,89.2,73.0,29.68,SW,233,4.2,8.1,59,0.00,FEW,,0.14,WeatherDisplay:10.37,2013-06-25 21:25:00,
2013-06-25 16:30:00,88.9,72.2,29.68,SE,139,2.3,6.9,58,0.00,FEW,,0.14,WeatherDisplay:10.37,2013-06-25 21:30:00,
2013-06-25 16:35:00,88.5,71.8,29.68,WSW,243,5.5,9.2,58,0.00,FEW,,0.14,WeatherDisplay:10.37,2013-06-25 21:35:00,
2013-06-25 16:40:00,88.1,72.0,29.67,SW,236,2.5,3.5,59,0.00,FEW,,0.14,WeatherDisplay:10.37,2013-06-25 21:40:00,
2013-06-25 16:45:00,87.8,72.2,29.67,South,169,2.9,2.9,60,0.00,FEW,,0.14,WeatherDisplay:10.37,2013-06-25 21:45:00,
2013-06-25 16:50:00,87.9,72.3,29.67,South,181,5.1,5.1,60,0.00,FEW,,0.14,WeatherDisplay:10.37,2013-06-25 21:50:00,
2013-06-25 16:55:00,88.2,72.6,29.67,SE,129,3.0,5.8,60,0.00,FEW,,0.14,WeatherDisplay:10.37,2013-06-25 21:55:00,
2013-06-25 17:00:00,88.0,72.4,29.67,SSE,150,2.4,5.8,60,0.00,FEW,,0.14,WeatherDisplay:10.37,2013-06-25 22:00:00,
2013-06-25 17:05:00,87.7,72.6,29.67,SSE,153,3.5,4.6,61,0.00,FEW,,0.14,WeatherDisplay:10.37,2013-06-25 22:05:00,
2013-06-25 17:10:00,87.7,72.6,29.67,NW,316,2.5,5.0,61,0.00,FEW,,0.14,WeatherDisplay:10.37,2013-06-25 22:10:00,
2013-06-25 17:15:00,88.0,72.9,29.67,South,189,2.1,8.1,61,0.00,BKN,,0.14,WeatherDisplay:10.37,2013-06-25 22:15:00,
2013-06-25 17:20:00,88.2,72.6,29.68,South,176,4.1,4.6,60,0.00,BKN,,0.14,WeatherDisplay:10.37,2013-06-25 22:20:00,
2013-06-25 17:25:00,88.3,73.1,29.68,ESE,117,0.9,3.5,61,0.00,BKN,,0.14,WeatherDisplay:10.37,2013-06-25 22:25:00,
2013-06-25 17:30:00,88.2,73.0,29.67,SE,131,1.3,3.5,61,0.00,BKN,,0.14,WeatherDisplay:10.37,2013-06-25 22:30:00,
2013-06-25 17:35:00,88.4,73.7,29.67,SSE,157,0.5,3.5,62,0.00,BKN,,0.14,WeatherDisplay:10.37,2013-06-25 22:35:00,
2013-06-25 17:40:00,88.6,73.4,29.67,WSW,253,4.0,4.0,61,0.00,BKN,,0.14,WeatherDisplay:10.37,2013-06-25 22:40:00,
2013-06-25 17:45:00,88.4,73.2,29.68,WSW,240,1.6,4.6,61,0.00,BKN,,0.14,WeatherDisplay:10.37,2013-06-25 22:45:00,
2013-06-25 17:50:00,88.1,73.0,29.67,SSW,205,2.6,4.6,61,0.00,BKN,,0.14,WeatherDisplay:10.37,2013-06-25 22:50:00,
2013-06-25 17:55:00,87.8,73.2,29.67,SE,131,1.8,3.5,62,0.00,BKN,,0.14,WeatherDisplay:10.37,2013-06-25 22:55:00,
2013-06-25 18:00:00,87.7,73.1,29.67,WSW,247,1.7,5.8,62,0.00,BKN,,0.14,WeatherDisplay:10.37,2013-06-25 23:00:00,
2013-06-25 18:05:00,87.8,73.6,29.67,SSW,204,1.3,4.6,63,0.00,OVC,,0.14,WeatherDisplay:10.37,2013-06-25 23:05:00,
2013-06-25 18:10:00,88.0,73.3,29.67,South,184,1.8,3.5,62,0.00,OVC,,0.14,WeatherDisplay:10.37,2013-06-25 23:10:00,
2013-06-25 18:15:00,88.1,73.9,29.67,SSW,203,1.0,3.5,63,0.00,OVC,,0.14,WeatherDisplay:10.37,2013-06-25 23:15:00,
2013-06-25 18:20:00,88.1,73.9,29.66,South,181,2.3,8.0,63,0.00,OVC,,0.14,WeatherDisplay:10.37,2013-06-25 23:20:00,
2013-06-25 18:25:00,88.0,73.8,29.66,SW,231,1.1,4.6,63,0.00,OVC,,0.14,WeatherDisplay:10.37,2013-06-25 23:25:00,
2013-06-25 18:30:00,87.9,73.7,29.66,SSW,196,1.7,2.3,63,0.00,OVC,,0.14,WeatherDisplay:10.37,2013-06-25 23:30:00,
2013-06-25 18:35:00,87.7,73.5,29.66,SE,143,1.2,3.5,63,0.00,OVC,,0.14,WeatherDisplay:10.37,2013-06-25 23:35:00,
2013-06-25 18:40:00,87.6,73.9,29.66,ESE,121,1.4,4.0,64,0.00,OVC,,0.14,WeatherDisplay:10.37,2013-06-25 23:40:00,
2013-06-25 18:45:00,87.4,73.7,29.66,South,189,1.8,4.0,64,0.00,OVC,,0.14,WeatherDisplay:10.37,2013-06-25 23:45:00,
2013-06-25 18:50:00,87.2,74.0,29.66,SSW,207,1.4,2.3,65,0.00,OVC,,0.14,WeatherDisplay:10.37,2013-06-25 23:50:00,
2013-06-25 18:55:00,87.0,73.8,29.66,SW,236,2.6,3.5,65,0.00,OVC,,0.14,WeatherDisplay:10.37,2013-06-25 23:55:00,
2013-06-25 19:00:00,86.8,73.6,29.66,SW,218,1.0,3.5,65,0.00,OVC,,0.14,WeatherDisplay:10.37,2013-06-26 00:00:00,
2013-06-25 19:05:00,86.7,74.0,29.66,SSW,198,2.8,5.8,66,0.00,SCT,,0.14,WeatherDisplay:10.37,2013-06-26 00:05:00,
2013-06-25 19:10:00,86.5,73.8,29.65,WSW,255,1.3,4.6,66,0.00,SCT,,0.14,WeatherDisplay:10.37,2013-06-26 00:10:00,
2013-06-25 19:15:00,86.3,73.6,29.65,SSE,153,1.9,4.6,66,0.00,SCT,,0.14,WeatherDisplay:10.37,2013-06-26 00:15:00,
2013-06-25 19:20:00,86.2,73.5,29.65,SE,129,1.2,3.5,66,0.00,SCT,,0.14,WeatherDisplay:10.37,2013-06-26 00:20:00,
2013-06-25 19:25:00,86.1,73.9,29.65,South,181,1.8,3.5,67,0.00,SCT,,0.14,WeatherDisplay:10.37,2013-06-26 00:25:00,
2013-06-25 19:30:00,85.9,73.7,29.65,SSE,158,0.6,1.2,67,0.00,SCT,,0.14,WeatherDisplay:10.37,2013-06-26 00:30:00,
2013-06-25 19:35:00,85.8,73.6,29.65,SSW,209,0.5,1.2,67,0.00,SCT,,0.14,WeatherDisplay:10.37,2013-06-26 00:35:00,
2013-06-25 19:40:00,85.6,73.8,29.66,WSW,248,1.0,3.0,68,0.00,SCT,,0.14,WeatherDisplay:10.37,2013-06-26 00:40:00,
2013-06-25 19:45:00,85.5,73.3,29.66,SW,230,1.4,4.6,67,0.00,SCT,,0.14,WeatherDisplay:10.37,2013-06-26 00:45:00,
2013-06-25 19:50:00,85.4,73.2,29.66,South,191,1.6,3.5,67,0.00,SCT,,0.14,WeatherDisplay:10.37,2013-06-26 00:50:00,
2013-06-25 19:55:00,85.3,73.1,29.66,SSW,213,0.1,1.2,67,0.00,SCT,,0.14,WeatherDisplay:10.37,2013-06-26 00:55:00,
2013-06-25 20:00:00,85.1,72.9,29.66,SSE,162,3.5,5.8,67,0.00,SCT,,0.14,WeatherDisplay:10.37,2013-06-26 01:00:00,
2013-06-25 20:05:00,85.0,73.3,29.66,SSW,193,1.5,3.5,68,0.00,SCT,,0.14,WeatherDisplay:10.37,2013-06-26 01:05:00,
2013-06-25 20:10:00,84.8,73.1,29.66,North,358,0.3,6.9,68,0.00,SCT,,0.14,WeatherDisplay:10.37,2013-06-26 01:10:00,
2013-06-25 20:15:00,84.6,72.9,29.66,ESE,108,1.4,4.0,68,0.00,CLR,,0.14,WeatherDisplay:10.37,2013-06-26 01:15:00,
2013-06-25 20:20:00,84.5,72.8,29.66,South,184,1.2,3.5,68,0.00,CLR,,0.14,WeatherDisplay:10.37,2013-06-26 01:20:00,
2013-06-25 20:25:00,84.3,72.6,29.66,SSW,213,1.7,3.5,68,0.00,CLR,,0.14,WeatherDisplay:10.37,2013-06-26 01:25:00,
2013-06-25 20:30:00,84.2,72.5,29.66,South,179,2.1,3.5,68,0.00,CLR,,0.14,WeatherDisplay:10.37,2013-06-26 01:30:00,
2013-06-25 20:35:00,84.1,72.4,29.66,East,96,0.9,3.5,68,0.00,CLR,,0.14,WeatherDisplay:10.37,2013-06-26 01:35:00,
2013-06-25 20:40:00,84.0,72.3,29.65,SE,140,0.6,3.5,68,0.00,CLR,,0.14,WeatherDisplay:10.37,2013-06-26 01:40:00,
2013-06-25 20:45:00,83.8,72.1,29.65,SSW,200,2.5,4.0,68,0.00,CLR,,0.14,WeatherDisplay:10.37,2013-06-26 01:45:00,
2013-06-25 20:50:00,83.8,72.1,29.66,ESE,111,0.5,3.5,68,0.00,CLR,,0.14,WeatherDisplay:10.37,2013-06-26 01:50:00,
2013-06-25 20:55:00,83.6,72.3,29.65,WSW,241,1.1,3.0,69,0.00,CLR,,0.14,WeatherDisplay:10.37,2013-06-26 01:55:00,
2013-06-25 21:00:00,83.5,72.3,29.66,SSW,210,0.7,3.5,69,0.00,CLR,,0.14,WeatherDisplay:10.37,2013-06-26 02:00:00,
2013-06-25 21:05:00,83.4,72.2,29.65,East,101,1.2,3.5,69,0.00,CLR,,0.14,WeatherDisplay:10.37,2013-06-26 02:05:00,
2013-06-25 21:15:00,83.2,72.4,29.65,South,180,3.0,5.0,70,0.00,CLR,,0.14,WeatherDisplay:10.37,2013-06-26 02:15:00,
2013-06-25 21:20:00,83.1,72.3,29.66,SSW,198,0.7,15.0,70,0.00,CLR,,0.14,WeatherDisplay:10.37,2013-06-26 02:20:00,
2013-06-25 21:25:00,82.9,72.1,29.66,SSE,150,0.3,3.5,70,0.00,CLR,,0.14,WeatherDisplay:10.37,2013-06-26 02:25:00,
2013-06-25 21:30:00,82.8,72.4,29.66,SE,136,0.2,2.3,71,0.00,CLR,,0.14,WeatherDisplay:10.37,2013-06-26 02:30:00,
2013-06-25 21:35:00,82.7,72.3,29.66,NE,48,0.7,1.2,71,0.00,CLR,,0.14,WeatherDisplay:10.37,2013-06-26 02:35:00,
2013-06-25 21:40:00,82.5,72.1,29.66,ESE,104,2.6,4.6,71,0.00,CLR,,0.14,WeatherDisplay:10.37,2013-06-26 02:40:00,
2013-06-25 21:45:00,82.4,72.5,29.66,SW,227,1.6,3.5,72,0.00,CLR,,0.14,WeatherDisplay:10.37,2013-06-26 02:45:00,
2013-06-25 21:50:00,82.4,72.5,29.67,SSE,148,1.6,3.5,72,0.00,CLR,,0.14,WeatherDisplay:10.37,2013-06-26 02:50:00,
2013-06-25 21:55:00,82.3,72.4,29.67,SSE,165,1.3,2.3,72,0.00,CLR,,0.14,WeatherDisplay:10.37,2013-06-26 02:55:00,
2013-06-25 22:00:00,82.2,72.3,29.67,SW,224,1.9,4.6,72,0.00,CLR,,0.14,WeatherDisplay:10.37,2013-06-26 03:00:00,
2013-06-25 22:05:00,82.2,72.3,29.67,ESE,120,1.6,2.3,72,0.00,CLR,,0.14,WeatherDisplay:10.37,2013-06-26 03:05:00,
2013-06-25 22:10:00,82.2,72.3,29.68,SSE,150,1.7,3.5,72,0.00,CLR,,0.14,WeatherDisplay:10.37,2013-06-26 03:10:00,
2013-06-25 22:16:00,82.1,72.2,29.68,SSW,195,0.9,3.5,72,0.00,CLR,,0.14,WeatherDisplay:10.37,2013-06-26 03:16:00,
2013-06-25 22:21:00,82.0,72.1,29.68,SSE,164,2.2,3.5,72,0.00,CLR,,0.14,WeatherDisplay:10.37,2013-06-26 03:21:00,
2013-06-25 22:26:00,81.9,72.0,29.68,ESE,113,1.8,3.5,72,0.00,CLR,,0.14,WeatherDisplay:10.37,2013-06-26 03:26:00,
2013-06-25 22:31:00,81.8,71.9,29.68,SE,143,0.8,3.5,72,0.00,CLR,,0.14,WeatherDisplay:10.37,2013-06-26 03:31:00,
2013-06-25 22:36:00,81.7,72.2,29.68,South,169,1.4,2.3,73,0.00,CLR,,0.14,WeatherDisplay:10.37,2013-06-26 03:36:00,
2013-06-25 22:41:00,81.6,72.1,29.68,SSW,197,0.1,2.3,73,0.00,CLR,,0.14,WeatherDisplay:10.37,2013-06-26 03:41:00,
2013-06-25 22:46:00,81.5,72.0,29.68,SSW,212,1.0,3.5,73,0.00,CLR,,0.14,WeatherDisplay:10.37,2013-06-26 03:46:00,
2013-06-25 22:51:00,81.3,71.8,29.68,SSE,165,0.6,2.3,73,0.00,CLR,,0.14,WeatherDisplay:10.37,2013-06-26 03:51:00,
2013-06-25 22:56:00,81.2,72.1,29.69,South,174,0.9,2.3,74,0.00,CLR,,0.14,WeatherDisplay:10.37,2013-06-26 03:56:00,
2013-06-25 23:01:00,81.2,72.1,29.69,SW,217,1.5,2.3,74,0.00,CLR,,0.14,WeatherDisplay:10.37,2013-06-26 04:01:00,
2013-06-25 23:06:00,81.1,72.0,29.69,South,189,0.7,1.2,74,0.00,CLR,,0.14,WeatherDisplay:10.37,2013-06-26 04:06:00,
2013-06-25 23:11:00,81.0,71.9,29.69,SSE,155,1.0,3.5,74,0.00,CLR,,0.14,WeatherDisplay:10.37,2013-06-26 04:11:00,
2013-06-25 23:16:00,81.0,72.3,29.69,SE,128,1.2,2.3,75,0.00,CLR,,0.14,WeatherDisplay:10.37,2013-06-26 04:16:00,
2013-06-25 23:21:00,80.9,72.2,29.69,SSW,200,1.2,3.5,75,0.00,CLR,,0.14,WeatherDisplay:10.37,2013-06-26 04:21:00,
2013-06-25 23:26:00,81.0,72.3,29.69,SSE,159,0.3,1.2,75,0.00,CLR,,0.14,WeatherDisplay:10.37,2013-06-26 04:26:00,
2013-06-25 23:31:00,80.9,72.2,29.69,SSE,158,1.6,3.5,75,0.00,CLR,,0.14,WeatherDisplay:10.37,2013-06-26 04:31:00,
2013-06-25 23:36:00,80.9,72.2,29.69,WSW,250,1.0,3.0,75,0.00,CLR,,0.14,WeatherDisplay:10.37,2013-06-26 04:36:00,
2013-06-25 23:41:00,80.9,72.2,29.69,SSE,151,1.2,3.5,75,0.00,CLR,,0.14,WeatherDisplay:10.37,2013-06-26 04:41:00,
2013-06-25 23:46:00,80.9,72.2,29.69,South,174,1.2,3.5,75,0.00,CLR,,0.14,WeatherDisplay:10.37,2013-06-26 04:46:00,
2013-06-25 23:51:00,80.9,72.2,29.69,West,261,1.8,3.5,75,0.00,CLR,,0.14,WeatherDisplay:10.37,2013-06-26 04:51:00,
2013-06-25 23:56:00,80.8,72.1,29.69,SSW,200,1.0,2.3,75,0.00,CLR,,0.14,WeatherDisplay:10.37,2013-06-26 04:56:00,